KHII

Details ICAO KHII (HII)
Name LAKE HAVASU CITY
Region United States
Timezone America/Phoenix (UTC-7.0)
Plans Departing 17
Arriving 27
Stats Elevation 781 ft / 238 m (AMSL)
Location 34.571123° -114.358277°
Runways 1
Magnetic Variation 11.138° E
Sunrise 2018-05-21 12:32:09 UTC / 2018-05-21 05:32:09 Local
Sunset 2018-05-22 02:38:48 UTC / 2018-05-21 19:38:48 Local
Advertisement - Login to hide

Runways

ID Width Length Bearing (true) Bearing (mag) Surface Threshold Offset Overrun Length
14 100 ft / 30 m 8,012 ft / 2,442 m 149.75° 138.61° Asphalt 0 ft / 0 m 200 ft / 61 m
32 100 ft / 30 m 8,012 ft / 2,442 m 329.76° 318.62° Asphalt 0 ft / 0 m 200 ft / 61 m

Map

Weather


0- 5 10 15 20 25 30 35+ Temperature / ° C

Clouds and Precipitation
Forecast for 2018-05-22 00:00 UTC. Updated 5 hours ago

Ground ~20,000 ft ~40,000 ft Winds

METAR

KHII 220415Z AUTO 20006KT 10SM CLR 28/00 A2965 RMK AO2

TAF

Not found

Frequencies

Recorded 119.02 MHz AWOS 3
Unicom 122.70 MHz CTAF/UNICOM
Warning: Do not use this data for real-world aviation or navigation. No guarantee of current accuracy is given.